Time,TemperatureF,DewpointF,PressureIn,WindDirection,WindDirectionDegrees,WindSpeedMPH,WindSpeedGustMPH,Humidity,HourlyPrecipIn,Conditions,Clouds,dailyrainin,SoftwareType,DateUTC
2013-02-15 00:14:00,29.4,26.0,29.98,NNE,15,6.0,12.0,88,0.00,,,0.00,weatherlink.com 1.10,2013-02-15 06:14:00,
2013-02-15 00:29:00,29.3,26.0,29.99,WSW,256,1.0,9.0,87,0.00,,,0.00,weatherlink.com 1.10,2013-02-15 06:29:00,
2013-02-15 00:44:00,29.0,26.0,30.00,NW,310,6.0,6.0,87,0.00,,,0.00,weatherlink.com 1.10,2013-02-15 06:44:00,
2013-02-15 00:59:00,28.6,25.0,30.00,WNW,288,6.0,8.0,85,0.00,,,0.00,weatherlink.com 1.10,2013-02-15 06:59:00,
2013-02-15 01:14:00,28.0,23.0,30.01,NNW,330,8.0,12.0,81,0.00,,,0.00,weatherlink.com 1.10,2013-02-15 07:14:00,
2013-02-15 01:29:00,27.3,22.0,30.02,WNW,290,5.0,12.0,79,0.00,,,0.00,weatherlink.com 1.10,2013-02-15 07:29:00,
2013-02-15 01:44:00,26.8,20.0,30.03,West,274,2.0,12.0,75,0.00,,,0.00,weatherlink.com 1.10,2013-02-15 07:44:00,
2013-02-15 01:59:00,26.5,20.0,30.03,NNW,342,1.0,8.0,75,0.00,,,0.00,weatherlink.com 1.10,2013-02-15 07:59:00,
2013-02-15 02:14:00,25.9,18.0,30.04,SW,227,7.0,12.0,73,0.00,,,0.00,weatherlink.com 1.10,2013-02-15 08:14:00,
2013-02-15 02:29:00,24.9,17.0,30.05,NW,314,4.0,13.0,72,0.00,,,0.00,weatherlink.com 1.10,2013-02-15 08:29:00,
2013-02-15 02:45:00,23.9,16.0,30.06,West,279,1.0,12.0,73,0.00,,,0.00,weatherlink.com 1.10,2013-02-15 08:45:00,
2013-02-15 03:00:00,23.4,16.0,30.06,NNE,32,4.0,13.0,74,0.00,,,0.00,weatherlink.com 1.10,2013-02-15 09:00:00,
2013-02-15 03:19:00,22.6,15.0,30.06,West,266,7.0,14.0,73,0.00,,,0.00,weatherlink.com 1.10,2013-02-15 09:19:00,
2013-02-15 03:30:00,22.1,14.0,30.07,NNE,23,4.0,9.0,71,0.00,,,0.00,weatherlink.com 1.10,2013-02-15 09:30:00,
2013-02-15 03:45:00,21.7,14.0,30.08,West,269,5.0,13.0,71,0.00,,,0.00,weatherlink.com 1.10,2013-02-15 09:45:00,
2013-02-15 04:00:00,20.7,13.0,30.08,NW,305,6.0,8.0,73,0.00,,,0.00,weatherlink.com 1.10,2013-02-15 10:00:00,
2013-02-15 04:15:00,20.2,13.0,30.09,North,352,2.0,9.0,73,0.00,,,0.00,weatherlink.com 1.10,2013-02-15 10:15:00,
2013-02-15 04:30:00,19.7,12.0,30.10,WNW,285,5.0,9.0,73,0.00,,,0.00,weatherlink.com 1.10,2013-02-15 10:30:00,
2013-02-15 04:46:00,19.2,12.0,30.11,NW,304,2.0,11.0,73,0.00,,,0.00,weatherlink.com 1.10,2013-02-15 10:46:00,
2013-02-15 05:00:00,18.9,12.0,30.12,WNW,302,6.0,10.0,73,0.00,,,0.00,weatherlink.com 1.10,2013-02-15 11:00:00,
2013-02-15 05:15:00,18.7,12.0,30.12,NW,315,4.0,8.0,74,0.00,,,0.00,weatherlink.com 1.10,2013-02-15 11:15:00,
2013-02-15 05:30:00,18.5,12.0,30.12,NW,314,6.0,10.0,74,0.00,,,0.00,weatherlink.com 1.10,2013-02-15 11:30:00,
2013-02-15 05:45:00,18.2,12.0,30.13,NW,309,3.0,8.0,75,0.00,,,0.00,weatherlink.com 1.10,2013-02-15 11:45:00,
2013-02-15 06:00:00,18.0,11.0,30.13,WNW,295,5.0,8.0,75,0.00,,,0.00,weatherlink.com 1.10,2013-02-15 12:00:00,
2013-02-15 06:16:00,17.8,11.0,30.13,NW,309,5.0,8.0,75,0.00,,,0.00,weatherlink.com 1.10,2013-02-15 12:16:00,
2013-02-15 06:30:00,17.6,11.0,30.14,NW,305,3.0,9.0,76,0.00,,,0.00,weatherlink.com 1.10,2013-02-15 12:30:00,
2013-02-15 06:45:00,17.4,11.0,30.15,WNW,302,7.0,8.0,76,0.00,,,0.00,weatherlink.com 1.10,2013-02-15 12:45:00,
2013-02-15 07:00:00,17.3,11.0,30.15,WNW,296,4.0,9.0,76,0.00,,,0.00,weatherlink.com 1.10,2013-02-15 13:00:00,
2013-02-15 07:15:00,17.2,11.0,30.16,NW,318,3.0,9.0,76,0.00,,,0.00,weatherlink.com 1.10,2013-02-15 13:15:00,
2013-02-15 07:30:00,17.3,11.0,30.16,NW,309,4.0,9.0,75,0.00,,,0.00,weatherlink.com 1.10,2013-02-15 13:30:00,
2013-02-15 07:46:00,17.5,11.0,30.17,NW,305,5.0,9.0,76,0.00,,,0.00,weatherlink.com 1.10,2013-02-15 13:46:00,
2013-02-15 08:01:00,17.7,11.0,30.17,NW,311,5.0,9.0,75,0.00,,,0.00,weatherlink.com 1.10,2013-02-15 14:01:00,
2013-02-15 08:16:00,18.2,11.0,30.18,NW,305,7.0,9.0,74,0.00,,,0.00,weatherlink.com 1.10,2013-02-15 14:16:00,
2013-02-15 08:31:00,18.5,11.0,30.18,NW,305,6.0,12.0,72,0.00,,,0.00,weatherlink.com 1.10,2013-02-15 14:31:00,
2013-02-15 08:46:00,18.8,11.0,30.18,WNW,293,10.0,12.0,71,0.00,,,0.00,weatherlink.com 1.10,2013-02-15 14:46:00,
2013-02-15 09:01:00,19.1,11.0,30.19,NW,321,5.0,12.0,71,0.00,,,0.00,weatherlink.com 1.10,2013-02-15 15:01:00,
2013-02-15 09:16:00,19.4,11.0,30.19,WNW,302,8.0,12.0,69,0.00,,,0.00,weatherlink.com 1.10,2013-02-15 15:16:00,
2013-02-15 09:31:00,20.1,11.0,30.19,NW,317,5.0,10.0,69,0.00,,,0.00,weatherlink.com 1.10,2013-02-15 15:31:00,
2013-02-15 09:46:00,20.1,11.0,30.19,NW,309,8.0,13.0,68,0.00,,,0.00,weatherlink.com 1.10,2013-02-15 15:46:00,
2013-02-15 10:01:00,20.7,12.0,30.19,NW,306,5.0,11.0,68,0.00,,,0.00,weatherlink.com 1.10,2013-02-15 16:01:00,
2013-02-15 10:16:00,21.6,12.0,30.19,NW,316,1.0,8.0,66,0.00,,,0.00,weatherlink.com 1.10,2013-02-15 16:16:00,
2013-02-15 10:31:00,22.2,12.0,30.20,West,269,5.0,9.0,65,0.00,,,0.00,weatherlink.com 1.10,2013-02-15 16:31:00,
2013-02-15 10:46:00,22.4,12.0,30.19,NW,308,12.0,12.0,65,0.00,,,0.00,weatherlink.com 1.10,2013-02-15 16:46:00,
2013-02-15 11:01:00,22.1,12.0,30.19,WNW,300,5.0,10.0,64,0.00,,,0.00,weatherlink.com 1.10,2013-02-15 17:01:00,
2013-02-15 11:16:00,22.4,13.0,30.19,WNW,298,8.0,10.0,66,0.00,,,0.00,weatherlink.com 1.10,2013-02-15 17:16:00,
2013-02-15 11:31:00,23.2,13.0,30.19,NW,314,4.0,9.0,64,0.00,,,0.00,weatherlink.com 1.10,2013-02-15 17:31:00,
2013-02-15 11:46:00,23.5,13.0,30.18,WNW,302,5.0,9.0,63,0.00,,,0.00,weatherlink.com 1.10,2013-02-15 17:46:00,
2013-02-15 12:01:00,24.4,13.0,30.18,WNW,302,6.0,7.0,61,0.00,,,0.00,weatherlink.com 1.10,2013-02-15 18:01:00,
2013-02-15 12:16:00,24.4,12.0,30.18,NW,311,3.0,11.0,60,0.00,,,0.00,weatherlink.com 1.10,2013-02-15 18:16:00,
2013-02-15 12:31:00,24.7,12.0,30.18,West,264,6.0,11.0,59,0.00,,,0.00,weatherlink.com 1.10,2013-02-15 18:31:00,
2013-02-15 12:46:00,25.1,12.0,30.17,WNW,295,6.0,10.0,57,0.00,,,0.00,weatherlink.com 1.10,2013-02-15 18:46:00,
2013-02-15 13:01:00,25.4,13.0,30.16,NW,310,6.0,10.0,59,0.00,,,0.00,weatherlink.com 1.10,2013-02-15 19:01:00,
2013-02-15 13:16:00,25.3,12.0,30.16,NW,314,8.0,12.0,57,0.00,,,0.00,weatherlink.com 1.10,2013-02-15 19:16:00,
2013-02-15 13:31:00,25.5,12.0,30.16,NW,310,6.0,13.0,56,0.00,,,0.00,weatherlink.com 1.10,2013-02-15 19:31:00,
2013-02-15 13:46:00,25.7,11.0,30.16,WNW,302,8.0,13.0,53,0.00,,,0.00,weatherlink.com 1.10,2013-02-15 19:46:00,
2013-02-15 14:01:00,25.5,11.0,30.16,WNW,283,4.0,10.0,54,0.00,,,0.00,weatherlink.com 1.10,2013-02-15 20:01:00,
2013-02-15 14:16:00,26.2,11.0,30.15,West,271,4.0,10.0,54,0.00,,,0.00,weatherlink.com 1.10,2013-02-15 20:16:00,
2013-02-15 14:31:00,26.0,10.0,30.15,WNW,300,5.0,10.0,52,0.00,,,0.00,weatherlink.com 1.10,2013-02-15 20:31:00,
2013-02-15 14:46:00,26.2,11.0,30.15,NW,309,4.0,13.0,52,0.00,,,0.00,weatherlink.com 1.10,2013-02-15 20:46:00,
2013-02-15 15:01:00,26.1,11.0,30.15,West,281,6.0,10.0,52,0.00,,,0.00,weatherlink.com 1.10,2013-02-15 21:01:00,
2013-02-15 15:16:00,26.2,11.0,30.16,NNW,328,7.0,9.0,52,0.00,,,0.00,weatherlink.com 1.10,2013-02-15 21:16:00,
2013-02-15 15:31:00,26.5,11.0,30.16,West,278,4.0,8.0,52,0.00,,,0.00,weatherlink.com 1.10,2013-02-15 21:31:00,
2013-02-15 15:46:00,26.9,11.0,30.16,West,278,5.0,9.0,51,0.00,,,0.00,weatherlink.com 1.10,2013-02-15 21:46:00,
2013-02-15 16:01:00,26.8,10.0,30.16,WNW,300,3.0,9.0,50,0.00,,,0.00,weatherlink.com 1.10,2013-02-15 22:01:00,
2013-02-15 16:16:00,26.5,10.0,30.16,NW,304,7.0,11.0,50,0.00,,,0.00,weatherlink.com 1.10,2013-02-15 22:16:00,
2013-02-15 16:32:00,26.5,11.0,30.16,WSW,238,3.0,11.0,52,0.00,,,0.00,weatherlink.com 1.10,2013-02-15 22:32:00,
2013-02-15 16:46:00,26.0,12.0,30.17,WNW,287,3.0,8.0,56,0.00,,,0.00,weatherlink.com 1.10,2013-02-15 22:46:00,
2013-02-15 17:01:00,25.5,11.0,30.17,WNW,291,6.0,10.0,55,0.00,,,0.00,weatherlink.com 1.10,2013-02-15 23:01:00,
2013-02-15 17:16:00,25.2,11.0,30.17,WNW,283,3.0,8.0,56,0.00,,,0.00,weatherlink.com 1.10,2013-02-15 23:16:00,
2013-02-15 17:32:00,24.9,11.0,30.17,WNW,285,4.0,5.0,57,0.00,,,0.00,weatherlink.com 1.10,2013-02-15 23:32:00,
2013-02-15 17:47:00,24.7,12.0,30.18,NW,310,3.0,5.0,59,0.00,,,0.00,weatherlink.com 1.10,2013-02-15 23:47:00,
2013-02-15 18:01:00,24.5,12.0,30.18,WNW,302,3.0,5.0,60,0.00,,,0.00,weatherlink.com 1.10,2013-02-16 00:01:00,
2013-02-15 18:17:00,24.2,11.0,30.18,NW,304,3.0,7.0,57,0.00,,,0.00,weatherlink.com 1.10,2013-02-16 00:17:00,
2013-02-15 18:32:00,23.8,11.0,30.18,WNW,293,4.0,8.0,58,0.00,,,0.00,weatherlink.com 1.10,2013-02-16 00:32:00,
2013-02-15 18:46:00,23.2,11.0,30.18,WNW,302,7.0,8.0,59,0.00,,,0.00,weatherlink.com 1.10,2013-02-16 00:46:00,
2013-02-15 19:01:00,22.6,11.0,30.19,NNW,339,4.0,9.0,61,0.00,,,0.00,weatherlink.com 1.10,2013-02-16 01:01:00,
2013-02-15 19:16:00,22.1,11.0,30.19,WNW,302,7.0,12.0,62,0.00,,,0.00,weatherlink.com 1.10,2013-02-16 01:16:00,
2013-02-15 19:31:00,21.6,11.0,30.19,WNW,302,4.0,9.0,63,0.00,,,0.00,weatherlink.com 1.10,2013-02-16 01:31:00,
2013-02-15 19:47:00,21.0,10.0,30.19,NNW,330,8.0,11.0,62,0.00,,,0.00,weatherlink.com 1.10,2013-02-16 01:47:00,
2013-02-15 20:01:00,20.6,10.0,30.19,NW,314,4.0,9.0,64,0.00,,,0.00,weatherlink.com 1.10,2013-02-16 02:01:00,
2013-02-15 20:16:00,20.1,10.0,30.20,WNW,299,6.0,9.0,64,0.00,,,0.00,weatherlink.com 1.10,2013-02-16 02:16:00,
2013-02-15 20:32:00,19.6,10.0,30.20,NW,310,2.0,8.0,65,0.00,,,0.00,weatherlink.com 1.10,2013-02-16 02:32:00,
2013-02-15 20:46:00,19.2,10.0,30.20,WNW,288,2.0,10.0,66,0.00,,,0.00,weatherlink.com 1.10,2013-02-16 02:46:00,
2013-02-15 21:01:00,18.6,9.0,30.20,NNW,338,4.0,12.0,66,0.00,,,0.00,weatherlink.com 1.10,2013-02-16 03:01:00,
2013-02-15 21:17:00,18.1,8.0,30.21,WNW,299,5.0,12.0,65,0.00,,,0.00,weatherlink.com 1.10,2013-02-16 03:17:00,
2013-02-15 21:31:00,17.8,8.0,30.21,WNW,299,6.0,11.0,66,0.00,,,0.00,weatherlink.com 1.10,2013-02-16 03:31:00,
2013-02-15 21:47:00,17.4,8.0,30.21,WNW,299,4.0,12.0,67,0.00,,,0.00,weatherlink.com 1.10,2013-02-16 03:47:00,
2013-02-15 22:02:00,16.9,8.0,30.21,NW,319,4.0,12.0,68,0.00,,,0.00,weatherlink.com 1.10,2013-02-16 04:02:00,
2013-02-15 22:17:00,16.5,8.0,30.21,WNW,295,2.0,8.0,69,0.00,,,0.00,weatherlink.com 1.10,2013-02-16 04:17:00,
2013-02-15 22:32:00,16.0,8.0,30.21,WNW,285,5.0,10.0,70,0.00,,,0.00,weatherlink.com 1.10,2013-02-16 04:32:00,
2013-02-15 22:47:00,15.6,7.0,30.21,NW,307,5.0,11.0,70,0.00,,,0.00,weatherlink.com 1.10,2013-02-16 04:47:00,
2013-02-15 23:02:00,15.3,7.0,30.21,WNW,284,5.0,9.0,70,0.00,,,0.00,weatherlink.com 1.10,2013-02-16 05:02:00,
2013-02-15 23:17:00,15.1,7.0,30.21,WNW,302,7.0,10.0,70,0.00,,,0.00,weatherlink.com 1.10,2013-02-16 05:17:00,
2013-02-15 23:32:00,14.8,7.0,30.21,NW,305,5.0,10.0,70,0.00,,,0.00,weatherlink.com 1.10,2013-02-16 05:32:00,
2013-02-15 23:47:00,14.5,6.0,30.21,WNW,300,4.0,11.0,70,0.00,,,0.00,weatherlink.com 1.10,2013-02-16 05:47:00,